SCP
0 1 1 0 0 1 1 1 1 1 1 1 1 1 0 0 0 0 0 0 0 0 0 0 0 0 0 0 0 0 0 0 0 0 0 0 0 0 0 0 0 0 0
1 1 1 1 1 1 1 1 1 1 1 1 1 1 0 0 0 0 0 0 0 0 0 0 0 0 0 0 0 0 0 0 0 0 0 0 0 0 0 0 0 0 0
1 1 1 1 1 1 1 1 1 1 1 1 1 1 0 0 0 0 0 0 0 0 0 0 0 0 0 0 0 0 0 0 0 0 0 0 0 0 0 0 0 0 0
1 1 1 1 1 1 1 1 1 1 1 1 1 1 0 0 0 0 0 0 0 0 0 0 0 0 0 0 0 0 0 0 0 0 0 0 0 0 0 0 0 0 0
1 1 1 1 1 1 1 1 1 1 1 1 1 1 0 0 0 0 0 0 0 0 0 0 0 0 0 0 0 0 0 0 0 0 0 0 0 0 0 0 0 0 0
1 1 1 1 1 1 1 1 1 1 1 1 1 1 0 0 0 0 0 0 0 0 0 0 0 0 0 0 0 0 0 0 0 0 0 0 0 0 0 0 0 0 0
1 1 1 1 1 1 1 1 1 1 1 1 1 1 1 1 0 0 0 0 0 0 0 0 0 0 0 0 0 0 0 0 0 0 0 0 0 0 0 0 0 0 0
1 1 1 1 1 1 1 1 1 1 1 1 1 1 1 1 0 0 0 0 0 0 0 0 0 0 0 0 0 0 0 0 0 0 0 0 0 0 0 0 0 0 0
1 1 1 1 1 1 1 1 1 1 1 1 1 1 1 1 1 1 0 0 0 0 0 0 0 0 0 0 0 0 0 0 0 0 0 0 0 0 0 0 0 0 0
1 1 1 1 1 1 1 1 1 2 1 1 1 1 1 1 1 1 1 0 0 0 0 0 0 0 0 0 0 0 0 0 0 0 0 0 0 0 0 0 0 0 0
1 1 1 1 1 1 1 1 1 1 1 1 1 1 1 1 1 1 1 1 0 0 0 0 0 0 0 0 0 0 0 0 0 0 0 0 0 0 0 0 0 0 0
1 1 1 1 1 1 1 1 1 1 1 1 1 1 1 1 1 1 1 1 1 0 0 0 0 0 0 0 0 0 0 0 0 0 0 0 0 0 0 0 0 0 0
1 1 1 1 1 1 1 1 1 1 1 1 1 1 1 1 1 1 1 1 1 1 1 1 0 0 0 0 0 0 0 0 0 0 0 0 0 0 0 0 0 0 0
1 2 2 2 2 2 1 1 1 1 1 1 1 1 1 1 1 1 1 1 1 1 1 1 1 1 0 0 0 0 0 0 0 0 0 0 0 0 0 0 0 0 0
2 2 2 2 2 2 2 2 1 1 1 1 1 1 1 1 1 1 1 1 1 1 1 1 1 1 1 0 0 0 0 0 0 0 0 0 0 0 0 0 0 0 0
1 2 2 2 2 2 2 2 2 2 2 2 1 1 1 1 1 1 1 1 1 1 1 1 1 1 1 0 0 0 0 1 1 1 0 0 0 0 0 0 0 0 0
1 1 2 2 2 2 2 2 2 2 2 2 2 1 1 1 1 1 1 1 1 1 1 1 1 1 1 0 0 0 0 1 1 1 1 0 0 0 0 0 0 0 0
1 2 2 2 2 2 2 2 2 2 2 2 2 2 2 1 1 1 1 1 1 1 1 1 1 1 1 0 0 0 0 1 1 1 1 1 0 0 0 0 0 0 0
1 2 2 2 2 2 2 3 2 2 2 2 2 2 2 2 2 1 2 2 1 1 1 1 1 1 1 0 0 0 0 1 1 1 1 1 0 0 0 0 1 1 1
2 2 2 2 2 3 3 3 2 2 2 2 2 2 2 2 2 2 2 2 2 1 1 1 1 1 1 0 0 0 0 1 1 1 1 0 0 0 0 0 1 1 1
2 2 2 2 2 3 3 3 2 2 2 2 2 2 2 2 2 2 2 2 2 2 1 1 1 1 1 1 0 0 0 0 1 1 0 0 0 0 0 0 0 0 0
2 2 2 2 3 3 3 3 3 3 3 2 2 2 2 2 2 2 2 2 2 2 2 1 1 1 1 1 0 0 0 0 1 1 0 0 0 0 0 0 0 0 0
2 2 2 2 3 3 3 3 3 3 3 3 2 2 2 2 2 2 2 2 2 2 2 2 1 1 1 1 1 0 0 0 0 0 0 0 0 0 0 0 0 0 0
1 1 2 2 3 3 3 3 3 3 3 3 3 2 2 2 2 2 2 2 2 2 2 2 1 1 1 1 1 0 0 0 0 0 0 0 0 0 0 0 0 0 0
1 1 2 2 3 3 3 3 3 3 3 3 2 2 2 2 2 2 1 1 1 1 1 1 1 1 1 1 1 0 0 0 0 0 0 0 0 0 0 0 1 1 1
2 2 2 2 2 3 3 3 3 3 3 3 2 2 2 2 2 1 1 1 1 1 1 1 1 1 1 1 0 0 0 0 0 0 1 1 1 1 1 1 1 1 1
Wind_Speed
13 12 11 11 10 9 7 5 4 3 2 2 2 2 1 2 2 2 3 3 2 2 2 2 2 2 2 2 2 1 1 1 1 2 2 1 2 2 2 2 3 3 4
13 13 12 11 11 10 8 6 5 4 3 2 1 1 2 2 2 2 3 3 2 2 2 2 2 2 2 2 2 2 1 1 1 1 1 1 1 1 1 2 3 3 3
15 14 12 11 11 10 9 7 6 5 4 3 2 2 2 1 2 3 2 2 2 2 2 3 2 1 2 2 1 1 1 0 0 1 0 1 1 1 1 1 2 1 2
16 15 14 12 11 11 10 8 7 5 5 4 3 3 3 2 2 2 2 3 3 3 3 2 2 1 1 1 0 1 0 0 0 0 0 1 2 1 1 0 1 1 1
17 16 15 13 12 12 11 10 7 6 5 4 4 3 2 2 2 2 3 3 3 3 3 3 2 1 1 1 1 1 1 1 1 1 0 0 0 1 2 1 1 0 1
16 16 15 13 11 11 11 11 9 7 6 5 5 4 3 3 3 3 3 2 2 3 3 3 2 2 1 1 1 1 1 1 2 1 1 0 0 0 1 1 1 0 0
15 16 16 14 12 11 11 11 10 8 7 6 5 4 4 3 3 2 3 2 2 3 3 2 2 1 1 1 1 0 1 1 1 1 1 1 1 0 0 1 1 0 0
14 16 16 14 13 12 11 12 11 9 8 7 6 5 4 3 3 3 2 2 2 2 3 3 2 1 1 1 0 0 0 1 1 2 1 1 1 1 0 1 2 1 0
12 14 16 15 13 13 11 12 12 10 9 8 7 6 5 4 3 4 3 2 2 3 3 3 3 2 1 0 0 0 0 1 1 1 1 1 1 1 0 0 1 1 1
10 12 12 14 14 13 11 11 12 11 10 8 7 7 6 4 3 3 3 2 2 2 3 3 2 2 2 1 0 0 0 0 1 1 1 2 2 2 1 1 1 0 1
9 10 11 12 14 15 14 12 12 11 10 9 8 7 7 6 4 3 3 3 3 3 2 2 2 2 1 1 1 1 1 0 1 1 1 1 1 2 2 2 2 1 1
9 11 11 11 12 13 14 12 11 11 11 9 8 7 7 6 6 5 4 4 3 3 3 2 2 2 2 1 1 1 1 0 1 1 1 1 1 1 2 1 1 1 0
9 10 10 10 10 10 10 12 11 11 11 10 9 8 8 7 6 5 5 4 4 3 3 3 2 2 1 1 1 1 1 1 1 1 1 1 1 1 1 1 2 2 1
7 9 8 8 8 8 7 8 11 11 10 10 10 8 7 7 6 5 5 4 4 3 3 3 2 2 1 1 1 1 1 1 1 0 1 1 1 1 1 1 1 2 1
7 7 8 7 8 8 8 8 8 9 9 9 9 8 7 7 6 5 5 5 4 5 4 3 3 2 2 1 1 2 2 1 1 1 1 1 2 2 2 2 2 2 1
8 7 8 8 8 9 8 8 8 8 9 9 8 8 8 7 6 6 5 5 4 3 3 3 3 3 2 1 1 1 1 1 1 1 1 1 1 0 0 2 2 2 2
7 8 8 8 7 8 8 8 8 7 8 8 7 8 8 7 6 7 6 5 5 4 3 3 3 2 1 1 1 1 1 2 1 2 2 2 1 0 1 2 2 3 3
7 6 7 8 8 8 8 7 8 8 8 8 8 7 8 8 7 6 5 6 5 4 4 3 3 3 2 2 1 2 3 2 2 2 1 1 1 2 2 2 2 2 2
6 6 7 8 8 9 9 8 8 8 8 8 8 8 8 7 7 6 5 5 5 4 4 4 4 4 3 3 3 2 2 2 2 2 1 1 0 2 3 2 2 2 2
5 6 6 7 8 8 9 9 8 8 8 8 7 7 7 7 7 6 5 4 4 4 4 4 4 4 3 4 4 3 2 2 2 2 1 1 0 0 1 2 2 3 3
4 5 6 6 7 8 8 8 8 8 7 7 7 6 6 6 6 5 5 4 4 4 4 4 4 4 4 5 5 4 2 2 2 2 1 1 2 2 2 2 2 3 3
3 4 5 5 6 8 8 7 6 6 6 6 6 6 6 6 6 5 4 4 4 5 5 4 4 4 4 4 5 6 5 4 3 2 0 1 2 2 3 3 3 3 3
2 3 4 5 5 6 7 6 5 5 5 6 6 6 6 4 4 5 5 5 4 5 5 5 5 4 3 4 5 6 6 5 2 1 1 1 3 3 3 4 4 3 2
1 3 4 5 5 5 5 5 4 5 6 6 6 5 5 5 4 4 4 4 4 4 4 3 3 3 3 3 3 3 4 3 3 2 1 2 3 4 4 3 3 3 3
1 2 3 5 5 5 5 5 5 5 6 6 6 5 5 5 4 3 2 2 1 2 3 2 2 2 2 3 3 3 3 2 2 1 2 2 2 2 3 3 3 2 2
2 2 3 5 5 5 5 5 5 5 6 6 5 5 5 5 5 4 3 3 2 2 3 2 2 2 4 6 4 2 3 4 4 3 3 3 3 3 3 2 2 2 2
Wind_Direction
164 156 157 152 143 138 139 144 144 144 148 143 156 152 139 131 114 115 112 112 110 108 91 84 105 92 87 84 89 97 98 108 116 94 79 74 114 139 143 153 152 156 161
164 160 162 158 151 147 146 146 152 156 160 161 150 147 137 136 130 109 107 104 104 104 117 103 115 99 100 72 60 56 70 102 100 111 110 101 99 66 150 148 157 161 162
168 165 165 164 159 156 156 157 162 158 163 167 148 137 117 120 119 120 123 126 123 115 79 85 80 81 102 98 113 89 71 88 77 115 163 142 120 104 41 127 119 124 133
170 167 169 170 168 163 161 153 155 154 158 169 162 163 159 151 142 131 132 137 132 128 118 106 94 82 82 87 108 96 86 124 238 206 206 176 148 147 126 15 117 159 162
172 172 171 171 171 167 162 157 154 153 158 171 166 169 164 155 141 128 137 144 135 128 119 116 113 109 104 95 60 45 29 51 359 321 290 284 207 171 161 183 179 163 171
172 171 169 167 172 168 163 159 156 156 162 170 168 180 176 161 145 150 154 166 146 135 128 122 113 111 112 110 85 6 41 12 355 338 319 325 304 203 150 158 151 161 179
171 168 167 168 171 169 164 159 158 162 168 172 172 178 179 161 152 161 166 165 139 128 129 123 124 113 131 132 86 58 5 354 335 332 344 354 335 23 137 137 145 199 278
171 169 169 170 171 171 165 160 159 165 170 171 169 168 166 169 169 175 163 148 123 124 130 133 127 118 91 93 87 13 266 17 336 350 4 327 328 337 166 159 148 150 271
170 168 168 169 170 171 168 164 160 164 169 171 166 164 166 178 166 152 154 138 132 139 132 140 141 138 131 118 133 199 2 33 337 339 349 322 325 333 322 124 167 163 185
168 164 166 168 170 170 168 166 162 165 169 171 173 167 166 165 155 151 147 146 124 113 130 138 146 151 155 168 184 235 210 93 316 316 5 356 341 339 353 359 343 69 121
167 164 167 168 172 172 171 170 164 165 166 170 173 168 164 164 160 156 149 150 142 141 147 154 154 158 152 151 169 264 245 236 302 313 342 357 355 348 355 4 0 29 90
164 161 164 167 174 173 171 170 168 168 169 170 171 169 160 163 165 164 162 161 162 167 162 161 168 177 163 168 188 250 277 269 295 320 334 339 342 3 353 353 350 3 83
152 155 157 160 169 170 168 167 169 169 169 168 169 168 165 163 164 166 167 168 169 172 166 165 173 191 184 178 211 234 260 278 289 308 320 315 7 12 353 349 327 316 307
146 151 149 151 158 157 157 162 168 167 166 166 170 168 167 162 163 165 166 167 169 170 175 175 182 191 185 193 230 240 245 257 269 279 300 342 24 346 310 286 282 286 284
147 147 147 149 155 158 162 163 163 162 165 164 170 168 164 160 164 168 168 166 171 179 175 180 184 186 187 213 225 235 224 234 273 306 304 35 53 28 348 315 311 300 291
162 157 157 157 162 163 166 164 162 161 160 163 170 163 162 164 167 169 169 167 172 180 178 180 182 191 206 146 152 236 255 230 233 256 267 233 182 173 347 330 293 285 270
164 164 165 164 168 167 165 165 162 160 160 162 169 167 165 168 171 176 170 175 181 183 188 181 175 177 168 120 114 249 250 253 253 252 261 268 290 131 258 260 248 262 267
168 166 169 167 168 165 163 163 162 160 161 165 172 170 170 172 174 176 175 178 181 184 187 182 180 180 174 160 166 259 231 241 244 253 272 315 349 328 326 276 263 261 274
161 161 171 167 161 162 160 160 165 165 167 172 175 175 171 172 173 178 183 181 181 186 189 184 184 186 181 190 195 230 230 227 225 220 219 227 224 339 333 299 286 281 282
156 159 164 158 152 155 158 164 172 172 176 176 173 173 170 175 175 176 181 183 185 190 191 187 185 187 185 195 201 213 238 243 237 213 194 185 195 353 333 279 275 276 280
116 141 149 154 153 153 158 169 176 180 177 171 167 168 169 174 174 172 172 174 191 195 194 189 190 190 193 188 199 206 244 266 261 244 211 162 171 192 241 275 265 263 276
135 141 143 145 145 151 157 169 175 171 167 168 166 165 165 180 177 172 175 181 194 197 196 199 202 193 185 181 198 209 228 268 276 264 215 123 171 209 242 258 271 264 279
138 149 147 135 144 151 159 169 162 159 164 164 164 166 168 175 176 175 179 191 200 208 207 202 206 198 175 168 186 203 219 238 246 286 316 232 225 240 255 256 258 251 249
206 172 154 149 150 152 155 155 153 158 162 164 167 169 171 175 174 175 183 192 200 207 208 206 207 193 161 155 173 195 205 219 227 254 284 235 219 236 244 248 246 239 249
198 174 154 153 155 154 154 157 160 163 164 165 169 173 174 175 174 173 167 195 187 212 207 205 189 185 181 167 173 193 205 214 206 203 226 223 211 222 223 227 230 237 251
170 184 184 167 160 161 164 163 165 170 170 173 178 183 183 178 176 170 150 74 128 130 130 144 171 165 161 157 164 183 212 226 194 197 220 224 227 237 235 230 224 224 241